Terug naar catalogus

STARLINK-4690

ActiefCommunicatieVLEO
NORAD 53604·PAYLOAD·🇺🇸 United States

Gelanceerd Aug 28, 2022 vanaf Cape Canaveral Space Force Station

Loading…

Volgende Passages (komende 24 uur)

TLE

VersSource: CelesTrak SupGP

Epoch: Sep 15, 2026, 02:48 UTC

1 53604C 22104S   26258.11715278 -.00012950  00000+0 -38259-3 0  2588
2 53604  53.1581  98.7682 0001256  79.5118 353.0291 15.34399079    12

Volg STARLINK-4690 in realtime met AllMySat

Download on the App Store